Regional Weather Roundup
Issued by NWS Wakefield, VA

Home | Current Version | Previous Version | Text Only | Print | Product List | Glossary Off
Versions: 1 2 3 4 5 6 7 8 9 10 11 12 13 14 15 16 17 18 19 20 21 22 23 24 25 26 27 28 29 30 31 32 33 34 35 36 37 38 39 40 41 42 43 44 45 46 47 48 49 50

000
ASUS41 KAKQ 050010
RWRAKQ

REGIONAL WEATHER ROUNDUP
NATIONAL WEATHER SERVICE WAKEFIELD VA
700 PM EST WED MAR 04 2015

Note: "fair" indicates few or no clouds below 12,000 feet with no
significant weather and/or obstructions to visibility. * = Denotes
station may not report precipitation (e.g., rain,snow,etc.),
thunder or fog.

VAZ042-051-052>054-056-050100-
NORTHERN VIRGINIA

CITY           SKY/WX    TMP DP  RH WIND       PRES   REMARKS
WASH NATIONAL  LGT RAIN  46  45  93 NE3       29.88S FOG
DULLES         LGT RAIN  45  45 100 CALM      29.88S FOG
FORT BELVOIR   DRZL/FOG  43  41  93 CALM      29.87F VSB 1/2
QUANTICO       LGT RAIN  42  40  92 CALM      29.88F FOG
FREDERICKSBRG* LGT RAIN  50  50 100 CALM      29.86F VSB 1/2
STAFFORD*      DRZL/FOG  49  50 100 CALM      29.90F VSB 1/2
WARRENTON      FOG       46  46 100 CALM      29.86F VSB 1/2
CULPEPER*      FOG       43  43 100 CALM      29.88S VSB 1/2
MANASSAS*      FOG       41  41 100 CALM      29.88F VSB 1/2
LEESBURG*      LGT RAIN  43  43 100 N5        29.88S
WINCHESTER     RAIN      46  43  87 N6        29.87R
FRONT ROYAL*   CLOUDY    48  46  93 CALM      29.85S
LURAY*         DRIZZLE   50  50 100 SW3       29.86S
$$

VAZ048-049-060>072-079>083-050100-
CENTRAL AND SOUTH CENTRAL VIRGINIA

CITY           SKY/WX    TMP DP  RH WIND       PRES   REMARKS
RICHMOND       CLOUDY    56  51  84 NE8       29.88F
CHESTERFIELD*  CLOUDY    57  45  62 NW3       29.89S
PETERSBURG*    CLOUDY    60  54  78 N8        29.87S
HANOVER        CLOUDY    53  51  93 CALM      29.90F
TAPPAHANNOCK*  LGT RAIN  52  50  92 CALM      29.90S
QUINTON*       CLOUDY    55  52  88 NE7       29.88F
CHARLOTTSVILLE CLOUDY    49  47  93 CALM      29.86S FOG
GORDONSVILLE*  FOG       43  43  99 W3        29.86F VSB 3/4
ORANGE*        DRZL/FOG  46  45  93 CALM      29.88S VSB 1/2
LOUISA*        DRIZZLE   52  50  93 S3        29.85F
BUMPASS*       CLOUDY    49  49  99 CALM      29.86F
FARMVILLE*     CLOUDY    56  51  82 NE6       29.86S
CREWE*         CLOUDY    56  51  84 N5        29.87S
FORT PICKETT*  CLOUDY    58  53  85 N6        29.86R
CHASE CITY*    CLOUDY    62  57  84 N6        29.85S
CLARKSVILLE*   CLOUDY    63  55  77 N5        29.84R
SOUTH HILL*    CLOUDY    62  56  82 N3        29.90R
LAWRENCEVILLE* CLOUDY    62  57  84 NE3       29.84R
EMPORIA*       CLOUDY    59  55  88 CALM      29.85F
$$

VAZ088>098-050100-
SOUTHEAST VIRGINIA

CITY           SKY/WX    TMP DP  RH WIND       PRES   REMARKS
NORFOLK        CLOUDY    48  43  82 N8        29.86S
VIRGINIA BEACH MOCLDY    49  43  80 E5        29.87R
NORFOLK NAVAL  MOCLDY    50  44  80 E6        29.88S
WEST POINT*    CLOUDY    58  53  84 CALM      29.90S
SALUDA*        CLOUDY    47  46  96 NW3       29.89S
NEWPORT NEWS   CLOUDY    54  50  86 E7        29.87F FOG
LANGLEY AFB    CLOUDY    48  47  95 E5        29.86F FOG
FORT EUSTIS    CLOUDY    56  56 100 E5        29.85S
WILLIAMSBURG*  MOCLDY    57  55  94 CALM      29.87F
HR EXEC AP*    FAIR      55  52  88 CALM      29.87F
FRANKLIN*      MOCLDY    57  55  94 CALM      29.85F
WAKEFIELD      CLOUDY    59  54  83 NE5       29.86F
$$

VAZ020-022-025-037-045-050100-
WEST CENTRAL AND SOUTHWEST VIRGINIA

CITY           SKY/WX    TMP DP  RH WIND       PRES   REMARKS
STAUNTON*      RAIN      46  45  95 CALM      29.90R VSB 1/2
WAYNESBORO*    CLOUDY    46  46  99 CALM      29.87R
HOT SPRINGS VA RAIN      43  43 100 W8        29.85R VSB 1/4
LYNCHBURG      CLOUDY    49  48  97 CALM      29.88S
DANVILLE       CLOUDY    62  51  67 N8        29.86R
SOUTH BOSTON*  CLOUDY    61  51  70 NE6       29.85R
MARTINSVILLE   CLOUDY    59  49  69 N3        29.89R
ROANOKE        LGT RAIN  48  46  93 NW5       29.91R
BLACKSBURG     LGT RAIN  46  45  97 CALM      29.92R
DUBLIN*        LGT RAIN  48  48 100 CALM      29.88S
MARION*        CLOUDY    52  50  92 SE6       29.89R
HILLSVILLE*    CLOUDY    51  49  95 NE5       29.85S
RICHLANDS*     RAIN      47  45  95 N3        29.88R VSB 1/4
WISE*          LGT RAIN  46  46 100 N8        29.91R
ABINGDON*      CLOUDY    54  51  92 E3        29.85R
$$

MDZ021>025-VAZ099-100-050100-
SOUTHERN MARYLAND AND THE DELMARVA PENINSULA

CITY           SKY/WX    TMP DP  RH WIND       PRES   REMARKS
PATUXENT RIVER LGT RAIN  46  44  93 S7        29.89S FOG
BAY BRIDGE APT DRIZZLE   41  41 100 CALM      29.89F
LEONARDTOWN    CLOUDY    46  45  93 S3        29.90F
DOVER          LGT RAIN  41  41 100 E3        29.89F VSB 1/2
GEORGETOWN     FOG       45  44  97 CALM      29.90F VSB 1/4
EASTON         NOT AVBL
CAMBRIDGE      CLOUDY    43  41  93 SE6       29.88F VSB 1/2
SALISBURY      FOG       49  46  90 SE3       29.90F VSB 1/4
OCEAN CITY     CLOUDY    47  47 100 CALM      29.91F FOG
WALLOPS ISLAND CLOUDY    48  48 100 NE6       29.90F FOG
ACCOMACK*      CLOUDY    54  52  94 NE3       29.88F FOG
$$

NCZ012>017-030>032-050100-
NORTH CENTRAL AND EASTERN NORTH CAROLINA

CITY           SKY/WX    TMP DP  RH WIND       PRES   REMARKS
ROANOKE RAPIDS FAIR      66  57  72 S8        29.84S
RALEIGH        MOCLDY    69  52  54 SW14      29.85R
ELIZABETH CITY MOCLDY    67  61  81 S10       29.87S
AHOSKIE*       CLEAR     69  58  67 S5        29.85S
EDENTON*       MOCLDY    65  59  80 S10       29.87S
CURRITUCK*     MOCLDY    65  58  78 S3        29.87S
KILL DEVIL HLS MOCLDY    62  60  95 S7        29.89R
MANTEO         MOCLDY    55  54  94 S14       29.90S
CAPE HATTERAS  MOCLDY    56  56 100 SW12G20   29.98R FOG
TARBORO*       FAIR      73  59  60 S9        29.86S
GOLDSBORO      PTCLDY    72  69  91 SW5       29.87S
WASHINGTON     PTCLDY    73  63  71 S7        29.89S
GREENVILLE     PTCLDY    72  61  68 SW13      29.90S
NEW BERN       PTCLDY    69  58  67 S12       29.93S
WILMINGTON     PTCLDY    67  63  87 SW21G31   29.97S
$$

VAZ048-050100-
ELSEWHERE

CITY           SKY/WX    TMP DP  RH WIND       PRES   REMARKS
HARRISBURG PA  LGT RAIN  38  37  97 VRB3      29.89S
BALTIMORE      LGT RAIN  40  39  97 E3        29.88F VSB 1/2
ANNAPOLIS      LGT RAIN  37  36  96 CALM      29.89F VSB 1/2
ANDREWS AFB    DRZL/FOG  46  46 100 E3        29.86F VSB 3/4
PHILADELPHIA   LGT RAIN  41  40  96 CALM      29.90F FOG
HENDERSON NC   MOCLDY    69  53  56 SW9G17    29.85R
GREENSBORO     MOCLDY    67  56  67 SW15      29.86R
ROCKY MOUNT    PTCLDY    72  59  63 S14       29.85S
$$

VAZ100-050100-
MARINE

STATION/POSITION TIME  TEMP    WIND        PRES    WAVE   SWELL
                       AIR SEA DIR/SP/G            HT/PER HT/PER
                 (UTC) (F)     (DEG/KT/KT) (MB)    (FT/S) (FT/S)
BRANDYWINE LGT   0000   43 31   70/  6/  6 1012.8F
CAPE MAY NJ      0000   42 35  100/  2/  2 1012.3F
LEWES DE         0000   42 31   50/  1/  2 1012.4F
15NM E FENWICK I 0000   38 36              1012.8R   4/ 7
OCEAN-CITY-INLET 0000   46 33   30/  2/  2 1012.8R
WACHAPREAGUE VA  0000   49 40   10/  2/  4 1012.1S
THOMAS POINT MD  0000   39 32   40/  3/  4 1013.2F
COVE POINT MD    0000   44     190/ 10/ 10 1011.8F
SOLOMONS ISLAND  0000      34                N/A
BISHOPS HEAD MD  0000   39 34   70/  3/  4 1012.0F
CAMBRIDGE MD     0000   40 32   40/  1/  2 1011.8F
LEWISETTA VA     0000   42 35     CALM     1012.2R
RAPPAHANNOCK LGT 0000           40/  6/  7 1012.1F
STINGRAY PT      0000   37      10/  8/ 10   N/A
YORK RVR RNG VA  0000   43     100/  8/  8 1011.0F
YORKTOWN VA      0000   46 35  140/  4/  5 1011.3F
DOMINION TERM VA 0000   49      60/ 10/ 13 1011.4F
KIPTOPEKE VA     0000      40   90/  7/ 11   N/A
CHES BAY BRIDGE  0000   40 33   40/ 10/ 11 1011.3R
CAPE HENRY VA    0000   40      60/  9/ 11 1010.5R
WILLOUBY STN VA  0000   40      70/ 11/ 11 1011.9F
S CRANEY ISL VA  0000           40/  7/  7 1011.3S
CAPE HENRY BUOY  0000      36                N/A     3/ 8   2/11
1ST LANDING BUOY 0000   39      70/ 10/ 12 1011.4R
OFFSHORE WE BUOY 0000      37                N/A     4/ 8   2/11
64NM E OF VA BCH 0000   57 53  210/ 19/ 25 1011.7F   5/ 6   2/11
DUCK PIER NC     0000   61 36  200/ 15/ 18 1010.9R
44100 DUCK FRF   0000      40                N/A     4/ 7   2/11
44056 DUCK FRF   0000      38                N/A     3/12   2/12
OREGON INLET NC  0000   49 48  190/ 17/ 20 1013.1F
HATTERAS NC      0000   56 46  230/ 10/ 15 1015.2R
$$


USA.gov is the U.S. government's official web portal to all federal, state and local government web resources and services.